Regional Weather Roundup
Issued by NWS Mobile, AL

Home | Current Version | Previous Version | Text Only | Print | Product List | Glossary On
Versions: 1 2 3 4 5 6 7 8 9 10 11 12 13 14 15 16 17 18 19 20 21 22 23 24 25 26 27 28 29 30 31 32 33 34 35 36 37 38 39 40 41 42 43 44 45 46 47 48 49
000
ASUS44 KMOB 071812
RWRMOB
REGIONAL WEATHER ROUNDUP
NATIONAL WEATHER SERVICE MOBILE AL
1200 PM CST SUN FEB 07 2016

NOTE: "FAIR" INDICATES FEW OR NO CLOUDS BELOW 12,000 FEET WITH NO
      SIGNIFICANT WEATHER AND/OR OBSTRUCTIONS TO VISIBILITY.

  * THESE STATIONS ARE PART OF THE UNIVERSITY OF SOUTH ALABAMA
    MESONET AND ARE NOT UNDER NWS OR FAA QUALITY CONTROL.

ALZ061>064-071900-
COASTAL ALABAMA

CITY           SKY/WX    TMP DP  RH WIND       PRES   REMARKS
MOBILE REG APT SUNNY     57  22  25 VRB5      30.23F
6HR MIN TEMP:  30; 6HR MAX TEMP:  57;

BROOKLEY FIELD SUNNY     56  25  30 NE8       30.25F
6HR MIN TEMP:  33; 6HR MAX TEMP:  56;

USA CAMPUS*    NOT AVBL
DOG RIVER*     NOT AVBL


CITY           SKY/WX    TMP DP  RH WIND       PRES   REMARKS
MOUNT VERNON*  NOT AVBL
SARALAND*      NOT AVBL
BAY MINETTE*   NOT AVBL
LOXLEY*        NOT AVBL
ROBERTSDALE*   NOT AVBL
FAIRHOPE*      NOT AVBL
ELBERTA*       NOT AVBL
FOLEY*         NOT AVBL
GRAND BAY*     NOT AVBL
DAUPHIN ISLND* NOT AVBL
BON SCOUR NWR* NOT AVBL
GULF SHORES    SUNNY     56  21  25 NW9       30.23F

$$

ALZ051>060-071900-
INTERIOR SOUTHWEST AND SOUTH CENTRAL ALABAMA

CITY           SKY/WX    TMP DP  RH WIND       PRES   REMARKS
GREENVILLE     SUNNY     55  21  26 N10G17    30.18
6HR MIN TEMP:  31; 6HR MAX TEMP:  55;

EVERGREEN      SUNNY     57  23  26 NE10      30.21F
6HR MIN TEMP:  29; 6HR MAX TEMP:  57;

CASTLEBERRY*   NOT AVBL
ATMORE*        NOT AVBL
DIXIE*         NOT AVBL
ANDALUSIA/OPP  SUNNY     60  23  24 N9G20     30.19F
6HR MIN TEMP:  36; 6HR MAX TEMP:  60;

ANDALUSIA*     NOT AVBL
FLORALA APT    SUNNY     57  25  29 N12G17    30.20F
6HR MIN TEMP:  30; 6HR MAX TEMP:  57;

FLORALA*       NOT AVBL

$$

FLZ001>006-071900-
WESTERN FLORIDA PANHANDLE

CITY           SKY/WX    TMP DP  RH WIND       PRES   REMARKS
PENSACOLA      SUNNY     58  23  26 N14       30.21F
6HR MIN TEMP:  35; 6HR MAX TEMP:  58;

NAS PENSACOLA  NOT AVBL
MILTON         SUNNY     57  24  28 NW12G21   30.21F
6HR MIN TEMP:  33; 6HR MAX TEMP:  57;

WHTNG S FIELD  SUNNY     60  24  25 N12       30.21
6HR MIN TEMP:  35; 6HR MAX TEMP:  60;



CITY           SKY/WX    TMP DP  RH WIND       PRES   REMARKS
WALNUT HILL*   NOT AVBL
JAY*           NOT AVBL
DUKE FIELD     SUNNY     56  22  26 N12G18    30.18F
CRESTVIEW      SUNNY     57  23  26 NW13      30.21F
6HR MIN TEMP:  32; 6HR MAX TEMP:  58;

VALPARAISO     SUNNY     58  23  26 N13G21    30.18F
6HR MIN TEMP:  36; 6HR MAX TEMP:  58;

DESTIN         SUNNY     59  28  30 N10       30.19F
6HR MIN TEMP:  41; 6HR MAX TEMP:  59;


$$

MSZ076-079-071900-
INTERIOR SOUTHEAST MISSISSIPPI

CITY           SKY/WX    TMP DP  RH WIND       PRES   REMARKS
LEAKESVILLE*   NOT AVBL
AGRICOLA*      NOT AVBL

$$

MARINE OBSERVATIONS

STATION/POSITION TIME  TEMP    WIND        PRES    WAVE
                       AIR SEA DIR/SP/G            HT/PER
                 (UTC) (F)     (DEG/KT/KT) (MB)    (FT/S)
PASCAGOULA       1700   52      10/  9/ 11 1025.0F
PETIT BOIS ISLND 1700   51      30/  4/  5 1025.7F
KATRINA CUT      1700   49     300/  2       N/A
CEDAR POINT      1700   49      50/  9     1024.7F
E DAUPHIN ISLAND 1700   47      10/  7/  8 1025.1F
MIDDLE BAY LIGHT 1700           10/ 10     1024.7S
USCG MOBILE BAY  1700   52 55  340/  6/ 10 1025.6F
STATE DOCKS      1700   54 53              1024.9F
MEAHER PARK      1700   51     340/  7     1025.4F
WEEKS BAY        1645   54                   N/A
FORT MORGAN      1700   48      10/  9/ 10 1024.6F
12 S ORANGE BCH  1750   52 61  350/  6/  8 1023.4F   1
PENSACOLA BAY    1700   57 51   10/  6/ 11 1024.3F

$$

SELECTED LOCATIONS ACROSS THE REGION

CITY           SKY/WX    TMP DP  RH WIND       PRES   REMARKS
NEW ORLEANS    MOSUNNY   57  22  25 N8        30.28F
GULFPORT       SUNNY     58  20  22 N12       30.25F
PASCAGOULA AP  SUNNY     58  20  22 N12G17    30.24F
PASCAGOULA*    NOT AVBL
HATTIESBURG    SUNNY     56  22  26 VRB6      30.26F
LAUREL         SUNNY     55  21  26 CALM      30.25F
MERIDIAN       SUNNY     55  21  26 SW7       30.22F
JACKSON        SUNNY     56  26  31 W6        30.23F
MONTGOMERY     SUNNY     57  22  25 N8G17     30.20F
TROY           SUNNY     57  25  29 N9G21     30.18F
KINSTON*       NOT AVBL
GENEVA*        NOT AVBL
ASHFORD*       NOT AVBL
DOTHAN         SUNNY     55  27  34 N14       30.18F
PANAMA CITY    SUNNY     57  26  30 NW13G18   30.17F

$$




USA.gov is the U.S. government's official web portal to all federal, state and local government web resources and services.